Location: Bonac
(42.8765°N, 0.9753°E)
Time: 23:23:43
(UTC+00:00)

Cosmos 2074 Rocket - Visible Passes

Search period start: 18 April 2026 00:00
Search period end: 28 April 2026 00:00
Orbit: 967 x 985 km, 82.9° (Epoch: 18 April)

Date Brightness Start Highest point End Pass type
(mag) Time Alt. Az. Time Alt. Az. Time Alt. Az.
18 Apr 7.0 20:32:28 10° W 20:35:43 14° WNW 20:38:59 10° NNW visible
19 Apr 7.5 03:55:29 10° NE 03:58:04 13° ENE 04:00:40 10° E visible
19 Apr 5.1 19:08:55 10° SSW 19:14:56 51° WNW 19:21:03 10° N visible
20 Apr 6.9 04:19:18 10° NNE 04:24:07 22° ENE 04:28:55 10° ESE visible
20 Apr 6.2 19:35:21 10° SW 19:40:41 29° WNW 19:46:04 10° NNW visible
21 Apr 7.0 20:02:46 10° WSW 20:06:37 17° WNW 20:10:31 10° NNW visible
22 Apr 7.6 03:27:40 10° NE 03:28:58 11° ENE 03:30:15 10° ENE visible
23 Apr 6.9 03:50:39 10° NNE 03:55:04 20° ENE 03:59:28 10° ESE visible
23 Apr 6.1 19:06:05 10° SW 19:11:40 34° WNW 19:17:18 10° N visible
24 Apr 6.0 04:15:18 10° N 04:20:58 34° ENE 04:26:34 10° SE visible
24 Apr 7.0 19:33:11 10° WSW 19:37:33 19° WNW 19:41:56 10° NNW visible
25 Apr 7.6 20:02:27 10° WNW 20:03:40 11° WNW 20:04:52 10° NW visible
26 Apr 6.9 03:22:03 10° NNE 03:26:00 17° ENE 03:29:54 10° ESE visible
27 Apr 6.2 03:46:31 10° NNE 03:51:56 29° ENE 03:57:19 10° SE visible
